Weather in Plotbishche

Russia / Kirov Oblast     56°49′25″N   50°33′41″E
temp.,
°C
wind,
m/s
gust,
m/s
humid.,
%
clouds,
%
prec.,
mm/h
press.,
hPa
HPBL,
m
13 may, thu
thu1300:00+16se22576 0.0 102611
03:00+14e22623 0.0 102610
06:00+17se24635 0.0 1026116
09:00+22sse454751 0.0 1025582
12:00+25sse563316 0.0 10251835
15:00+25s45355 0.0 10241555
18:00+23se2355100 0.0 102358
21:00+18se36655 0.0 102392
14 may, fri
fri1400:00+16sse397263 0.1 1023163
03:00+15sse411875 1.1 1023194
06:00+18sse4127211 0.0 1022356
09:00+23s694818 0.0 1022728
12:00+25ssw684255 0.0 10211039
15:00+26ssw684463 0.0 10211349
18:00+22ssw396167 0.0 1020277
21:00+17s347013 0.0 102050
15 may, sat
sat1500:00+16s357378 0.0 102087
03:00+15s3375100 0.0 102039
06:00+18s377192 0.0 1020198
09:00+22ssw5948100 0.0 1019482
12:00+25ssw6942100 0.0 1019696
15:00+27ssw6114389 0.0 1018989
18:00+23ssw613503 0.0 1017435
21:00+18s515585 0.0 1017281
16 may, sun
sun1600:00+17ssw414595 0.0 1016229
03:00+15ssw4126227 0.0 1017202
06:00+18ssw514595 0.0 1016337
09:00+23ssw7124536 0.0 1015562
12:00+26sw71141100 0.0 10151075
15:00+27sw61244100 0.0 10141875
18:00+24ssw375921 0.0 1014171
21:00+19sw3370100 0.0 101430
17 may, mon
mon1700:00+17wsw3586100 0.5 101469
03:00+16sw2291100 1.1 101519
06:00+18wsw47832 0.5 1016338
09:00+22w46575 0.5 10161120
12:00+24w57430 0.0 10161805
15:00+25wnw57423 0.0 10161916
18:00+22nw365993 0.0 1017236
21:00+18w2266100 0.0 101712